This demonstration page uses our WeatherBlox Daily Observations layout. Learn more.

Left ArrowRight Arrow

34.02893, -84.19858

Hourly Observations for November 22, 2022

Temp ( °F °C ) Dew Point ( °F °C ) Humidity (%) Winds ( mph kmh ) Pressure ( in mb ) Visibility ( mi km ) Precip ( " mm )
12:53 am 00:53 Clear 39 3.9 27 -2.8 62 62 Calm 30.38 1029 10 16 0.00 0.00
1:53 am 01:53 Clear 39 3.9 30 -1.1 70 70 Calm 30.39 1029 10 16 0.00 0.00
2:53 am 02:53 Clear 35 1.7 28 -2.2 75 75 Calm 30.38 1029 10 16 0.00 0.00
3:53 am 03:53 Clear 37 2.8 30 -1.1 75 75 Calm 30.37 1029 10 16 0.00 0.00
4:53 am 04:53 Mostly Clear 39 3.9 31 -0.6 72 72 Calm 30.37 1028 10 16 0.00 0.00
5:53 am 05:53 Clear 38 3.3 31 -0.6 76 76 Calm 30.38 1029 10 16 0.00 0.00
6:53 am 06:53 Clear 38 3.3 32 0 79 79 Calm 30.38 1029 10 16 0.00 0.00
7:53 am 07:53 Mostly Sunny 41 5 33 0.6 73 73 Calm 30.39 1029 10 16 0.00 0.00
8:53 am 08:53 Cloudy 46 7.8 32 0 58 58 Calm 30.41 1030 10 16 0.00 0.00
9:53 am 09:53 Mostly Sunny 49 9.4 33 0.6 54 54 Calm 30.40 1030 10 16 0.00 0.00
10:53 am 10:53 Partly Cloudy 55 12.8 27 -2.8 34 34 N 5 7 30.40 1029 10 16 0.00 0.00
11:53 am 11:53 Cloudy 56 13.3 24 -4.4 29 29 WNW 5 7 30.39 1029 10 16 0.00 0.00
12:53 pm 12:53 Cloudy 59 15 23 -5 25 25 Calm 30.35 1028 10 16 0.00 0.00
1:53 pm 13:53 Mostly Cloudy 62 16.7 20 -6.7 19 19 Calm 30.31 1026 10 16 0.00 0.00
2:53 pm 14:53 Mostly Cloudy 63 17.2 19 -7.2 18 18 Calm 30.31 1026 10 16 0.00 0.00
3:53 pm 15:53 Sunny 62 16.7 19 -7.2 19 19 Calm 30.29 1026 10 16 0.00 0.00
4:53 pm 16:53 Mostly Cloudy 60 15.6 25 -3.9 26 26 NNW 5 7 30.29 1026 10 16 0.00 0.00
5:53 pm 17:53 Cloudy 56 13.3 25 -3.9 30 30 Calm 30.30 1026 10 16 0.00 0.00
6:53 pm 18:53 Partly Cloudy 53 11.7 29 -1.7 39 39 Calm 30.30 1026 10 16 0.00 0.00
7:53 pm 19:53 Mostly Clear 47 8.3 30 -1.1 51 51 Calm 30.31 1027 10 16 0.00 0.00
8:53 pm 20:53 Mostly Cloudy 45 7.2 30 -1.1 55 55 Calm 30.30 1026 10 16 0.00 0.00
9:53 pm 21:53 Mostly Clear 43 6.1 30 -1.1 60 60 Calm 30.30 1026 10 16 0.00 0.00
10:53 pm 22:53 Mostly Clear 41 5 31 -0.6 67 67 Calm 30.29 1026 10 16 0.00 0.00
11:53 pm 23:53 Clear 40 4.4 32 0 73 73 Calm 30.29 1026 10 16 0.00 0.00

Powered by AerisWeather